{"data":{"norad_id":65991,"intl_designator":"2025-230T","name":"SDA_1681","alt_names":[],"object_type":"PAYLOAD","status":"ACTIVE","operator":null,"country":"US","launch_date":"2025-10-15","launch_site_code":"AFWTR","launch_vehicle":null,"mission":null,"orbit_class":"UNKNOWN","rcs_meters":null,"size_class":null,"mass_kg":null,"dimensions":null,"purposes":[],"wikipedia_slug":null,"has_3d_model":false,"image_url":null,"decayed_at":null,"tle_current":{"epoch":"2026-05-24T22:44:45.706272Z","epoch_age_seconds":69839,"freshness":"FRESH","line1":"1 65991U 25230T   26144.94775123  .00000162  00000+0  13176-3 0  9996","line2":"2 65991  81.3016 233.1094 0003016 255.8326 104.2496 13.85300921 30601","mean_motion":13.85300921,"eccentricity":0.0003016,"inclination_deg":81.3016,"raan_deg":233.1094,"arg_perigee_deg":255.8326,"mean_anomaly_deg":104.2496,"bstar":0.00013176,"rev_number":3060,"period_min":103.94853408172,"perigee_km":942.93632132183,"apogee_km":947.35372503821,"semimajor_km":7323.28202318,"source":"CELESTRAK","updated_at":"2026-05-25T13:38:05.881567Z"}}}